Location: Robert Ferguson Observatory
(38.4385°N, 122.5078°W)
Time: 00:56:02
(UTC-08:00)

Daily predictions for brighter satellites

Satellite Brightness Start Highest point End
(mag) Time Altitude Azimuth Time Altitude Azimuth Time Altitude Azimuth
USA 234 4.4 03:26:48 10° ENE 03:32:32 35° SE 03:32:32 35° SE
ATLAS 5 CENTAUR R/B 4.0 03:51:19 20° NNE 03:51:19 20° NNE 03:52:55 10° NNE
Cosmos 1943 Rocket 3.5 03:56:39 32° NNE 03:56:39 32° NNE 03:59:31 10° NNE
ADEOS II 2.8 04:05:46 10° NNE 04:09:35 49° NNE 04:09:35 49° NNE
CZ-4B R/B 3.5 04:09:20 10° NNE 04:14:01 63° NNE 04:14:01 63° NNE
ATLAS CENTAUR R/B 3.5 04:16:12 65° WSW 04:16:40 66° SW 04:32:55 10° SSE
Okean-O 3.8 04:19:44 10° NNE 04:23:57 41° E 04:25:43 28° SSE
Lacrosse 5 3.2 04:34:59 28° NNW 04:34:59 28° NNW 04:38:21 10° NNE
Okean 2 Rocket 4.2 04:30:02 10° N 04:34:14 43° E 04:38:26 10° SSE
Delta 2 Rocket 4.1 04:37:46 50° SSE 04:37:46 50° SSE 04:42:30 10° E
Cosmos 1244 Rocket 4.3 04:34:10 10° N 04:40:25 86° W 04:46:34 10° S
RUBIN 8/PSLV 4.4 04:44:50 10° NNE 04:49:13 89° ESE 04:50:08 56° SSW
Meteor 1-14 Rocket 4.1 04:44:58 10° N 04:50:47 87° W 04:56:26 10° S
Cosmos 1656 Rocket 3.7 04:53:03 50° WSW 04:54:06 58° WNW 04:59:43 10° NNE
Cosmos 1954 Rocket 3.9 04:51:29 15° NNW 04:55:48 65° WSW 05:01:03 10° S
GEOS 3 Rocket 3.4 04:53:45 10° SSE 04:58:49 75° SW 05:01:51 25° NW
CZ-4C R/B 2.3 04:58:12 46° W 04:59:05 50° NW 05:04:51 10° NNE
Meteor 1-31 Rocket 2.6 04:56:57 10° N 05:00:50 74° WNW 05:01:05 70° WSW
Cosmos 1420 Rocket 3.8 04:59:34 35° SW 05:01:42 69° WNW 05:06:53 10° NNE
Meteor 1-26 Rocket 4.3 05:01:02 38° WSW 05:02:42 49° WNW 05:08:07 10° N
Cosmos 2369 Rocket 4.3 05:04:58 12° NNW 05:04:58 12° NNW 05:05:55 10° NNW
COSMO-SKYMED 1 3.7 04:59:29 10° SE 05:03:36 44° ENE 05:07:44 10° N
S3M 3.9 04:59:05 10° S 05:05:25 82° W 05:11:44 10° N
Cosmos 2219 3.1 05:00:01 10° NNW 05:05:44 87° WSW 05:11:22 10° SSE
Cosmos 2227 Rocket 4.0 05:03:00 10° N 05:08:01 31° ENE 05:12:59 10° ESE
Meteor 1-25 Rocket 4.2 05:03:42 10° N 05:09:34 86° W 05:15:24 10° S
Cosmos 1553 Rocket 3.9 05:05:12 10° SSW 05:11:21 71° W 05:17:40 10° N
NOAA 6 4.0 05:07:46 10° NNE 05:12:57 83° ESE 05:18:05 10° SSW
Okean 1-7 3.2 05:14:14 41° WSW 05:14:48 44° W 05:18:53 10° N
ERS-2 4.3 05:12:44 10° NNW 05:13:30 14° NNW 05:13:30 14° NNW
USA 234 3.3 05:09:25 10° NE 05:15:50 62° NW 05:19:54 24° WSW
Cosmos 2221 Rocket 4.1 05:16:50 36° W 05:17:12 37° WNW 05:21:26 10° N
Meteor 2-10 Rocket 4.0 05:16:55 33° W 05:17:26 33° WNW 05:22:02 10° N
Thor Agena Rocket 3.7 05:24:32 10° S 05:29:35 51° W 05:34:37 10° NNW
SKYMED 3 4.5 05:29:13 10° S 05:33:33 83° WSW 05:37:54 10° NNW
ATLAS 5 CENTAUR R/B 4.0 05:32:51 10° NW 05:33:53 11° NNW 05:34:55 10° NNW
Cosmos 1110 Rocket 4.3 05:28:59 10° S 05:34:05 68° ESE 05:39:15 10° NNE
CZ-4 R/B 4.4 05:31:32 10° NE 05:34:38 20° E 05:37:41 10° SE
ATLAS 3B R/B 2.9 05:28:16 10° SW 05:35:52 77° WNW 05:43:14 10° NNE
Meteor 1-10 Rocket 4.1 05:31:53 10° SSW 05:37:25 69° W 05:43:04 10° N
Cosmos 1943 Rocket 4.0 05:38:12 12° NW 05:38:34 12° NW 05:40:49 10° NNW
Meteor 1-28 Rocket 3.2 05:35:46 10° SSE 05:39:28 83° ENE 05:43:14 10° N
Cosmos 1741 Rocket 4.1 05:38:05 10° NNW 05:43:10 52° WSW 05:48:14 10° S
CZ-2C R/B 4.4 05:39:41 10° NNE 05:44:11 34° E 05:48:47 10° SSE
Cosmos 1709 Rocket 4.2 05:38:28 10° N 05:44:36 74° E 05:50:44 10° SSE
Cosmos 1300 Rocket 4.1 05:41:16 10° N 05:45:40 62° E 05:50:01 10° SSE
ADEOS II 3.8 05:47:46 10° NW 05:50:04 13° WNW 05:50:33 13° WNW
COSMOS 2455 3.7 05:44:35 10° S 05:50:26 55° ESE 05:56:18 10° NE
SKYMED 2 3.7 05:47:23 10° S 05:51:36 50° W 05:55:50 10° NNW
Tiangong 1 2.1 05:51:09 16° NW 05:53:05 33° N 05:55:48 10° ENE
Okean 3 4.5 05:49:56 10° S 05:54:06 52° E 05:58:18 10° NNE
Cosmos 1536 4.1 05:51:44 10° N 05:55:36 45° E 05:59:27 10° SSE
Okean-O 4.1 05:57:10 10° NNW 06:00:05 17° WNW 06:03:00 10° WSW
Lacrosse 5 rocket 1.6 05:56:51 10° NW 06:00:24 57° NE 06:03:56 10° SE
Cosmos 2315 Rocket 4.0 05:55:24 10° S 06:01:46 80° W 06:08:09 10° N
Cosmos 1674 Rocket 3.6 05:57:55 10° SSW 06:02:15 58° W 06:06:39 10° N
Cosmos 1378 Rocket 3.9 05:58:17 10° S 06:02:37 70° E 06:06:58 10° NNE
CSL-04 Rocket 3.7 05:57:36 10° NNE 06:03:02 88° ESE 06:08:31 10° SSW
Radarsat Rocket 4.4 05:57:32 10° N 06:04:21 51° WNW 06:10:25 10° SW
Cosmos 1606 3.7 06:02:31 10° SW 06:05:49 26° WNW 06:09:09 10° NNW
Cosmos 2082 3.8 06:04:31 10° NNW 06:10:13 87° ENE 06:15:51 10° SSE
Cosmos 1602 3.8 06:06:52 10° NNW 06:10:45 57° W 06:14:36 10° S
Meteor 1-27 Rocket 3.9 06:06:07 10° SSW 06:11:47 59° W 06:17:38 10° N
Cosmos 1782 4.4 06:13:31 10° WSW 06:16:02 16° WNW 06:18:34 10° NNW
SJ-12 4.2 06:13:23 10° NNE 06:17:30 77° ESE 06:21:37 10° S
Lacrosse 5 4.1 06:17:02 10° NNW 06:18:21 11° NNW 06:19:41 10° N
Delta 2 Rocket 4.1 06:15:20 10° W 06:20:07 64° S 06:25:30 10° ESE
